IK5NLA Vaiano IT current weather conditions

sailwx.info

Wind from 011 at 3 knots

Air temperature 10.6° C
Dewpoint 9.3° C

Last reported at 2014-Nov-26 20:42 UTC.
Time now 2014-Nov-26 21:25 UTC

Location: N 43°58' E 011°06'.
View on Google Maps.

See reports from other nearby stations

  
Tides and Currents Weather Stations Pressure Air Temp Water Temp Dewpoint Dewpoint Depression Visibility Wind Speed Wind Dir Waves Ship Positions
date/time (UTC)wind fromknots sea level pressurealtimeterstation pressurevisibilityair tempwater tempwave heightnotes
2014-Nov-26 20:42 011 3 10.6
2014-Nov-26 20:32 051 4 10.6
2014-Nov-26 20:12 029 5 10.0
2014-Nov-26 20:02 013 3 10.6
2014-Nov-26 19:52 061 2 10.6
2014-Nov-26 19:47 059 2 10.6
2014-Nov-26 19:32 068 2 10.6
2014-Nov-26 19:17 053 3 10.6
2014-Nov-26 19:03 057 3 11.1
2014-Nov-26 18:57 024 2 11.1
2014-Nov-26 18:52 055 2 11.1
2014-Nov-26 18:47 045 2 11.1
2014-Nov-26 18:32 038 2 11.1
2014-Nov-26 18:17 036 3 11.1
2014-Nov-26 18:03 005 3 11.1
2014-Nov-26 17:57 029 3 11.1
2014-Nov-26 17:52 056 4 11.1
2014-Nov-26 17:47 053 5 10.6
2014-Nov-26 17:32 026 4 10.6
2014-Nov-26 17:07 360 3 10.6
2014-Nov-26 17:02 360 3 10.6
2014-Nov-26 16:57 338 3 10.6
2014-Nov-26 16:47 028 3 10.6
2014-Nov-26 16:22 024 3 10.6
2014-Nov-26 16:17 090 3 10.6
2014-Nov-26 16:02 047 3 10.6
2014-Nov-26 15:57 059 4 10.6
2014-Nov-26 15:52 021 4 10.6
2014-Nov-26 15:47 021 3 10.6
2014-Nov-26 15:32 045 2 10.6
2014-Nov-26 15:17 075 3 10.6
2014-Nov-26 15:03 029 3 11.1
2014-Nov-26 14:57 015 3 11.1
2014-Nov-26 14:52 040 2 11.1
2014-Nov-26 14:47 042 1 11.1
2014-Nov-26 14:22 063 2 11.1
2014-Nov-26 14:17 088 2 11.1
2014-Nov-26 13:57 065 2 11.7
2014-Nov-26 13:47 059 2 11.7
2014-Nov-26 13:32 068 3 11.7
2014-Nov-26 13:17 033 3 11.1
2014-Nov-26 13:03 029 3 11.1
2014-Nov-26 12:57 048 3 11.1
2014-Nov-26 12:52 036 3 11.1
2014-Nov-26 12:42 045 2 11.7
2014-Nov-26 12:32 037 1 11.7
2014-Nov-26 12:02 044 1 11.7
2014-Nov-26 11:47 036 2 11.1
2014-Nov-26 11:32 057 2 11.1
2014-Nov-26 11:12 079 1 11.1
2014-Nov-26 11:02 058 0 11.1
2014-Nov-26 10:57 022 1 11.1
2014-Nov-26 10:52 065 2 11.1
2014-Nov-26 10:47 044 1 11.1
2014-Nov-26 10:32 065 1 11.1
2014-Nov-26 09:57 034 3 11.1
2014-Nov-26 09:32 042 2 11.1
2014-Nov-26 09:17 061 3 11.1
2014-Nov-26 08:57 056 0 11.7
2014-Nov-26 08:52 021 0 11.7
2014-Nov-26 08:47 020 0 11.7
2014-Nov-26 08:32 061 0 11.7
2014-Nov-26 08:17 065 1 11.7
2014-Nov-26 08:03 038 1 11.7
2014-Nov-26 07:57 092 0 11.7
2014-Nov-26 07:52 108 12.2
2014-Nov-26 07:47 109 12.2
2014-Nov-26 07:17 109 0 11.7
2014-Nov-26 07:03 110 12.2
2014-Nov-26 06:32 344 0 12.2
2014-Nov-26 06:12 260 12.2
2014-Nov-26 06:02 260 12.2
2014-Nov-26 05:52 260 12.2
2014-Nov-26 05:42 260 0 12.2
2014-Nov-26 05:27 260 0 12.2
2014-Nov-26 05:17 260 0 12.2
2014-Nov-26 05:03 260 12.2
2014-Nov-26 04:57 260 12.2
2014-Nov-26 04:52 260 12.2
2014-Nov-26 04:47 260 0 12.2
2014-Nov-26 04:42 260 0 12.2
2014-Nov-26 04:32 260 0 12.2
2014-Nov-26 04:27 260 0 12.2
2014-Nov-26 04:17 261 0 12.2
2014-Nov-26 04:12 167 0 12.2
2014-Nov-26 04:07 167 12.2
2014-Nov-26 03:57 165 12.2
2014-Nov-26 03:52 165 12.2
2014-Nov-26 03:47 165 0 12.2
2014-Nov-26 03:32 164 12.2
2014-Nov-26 03:07 164 12.2
2014-Nov-26 02:57 164 0 12.2
2014-Nov-26 02:52 164 0 12.2
2014-Nov-26 02:47 164 12.2
2014-Nov-26 02:32 164 12.2
2014-Nov-26 02:17 164 12.2
2014-Nov-26 02:02 164 12.2
2014-Nov-26 01:52 164 12.2
2014-Nov-26 01:47 164 12.2
2014-Nov-26 01:32 164 12.2
2014-Nov-26 01:17 164 12.2
2014-Nov-26 01:02 164 12.2
2014-Nov-26 00:57 164 12.2
2014-Nov-26 00:42 163 12.2
2014-Nov-26 00:32 163 12.2
2014-Nov-25 23:57 230 12.2
2014-Nov-25 23:52 230 0 12.2
2014-Nov-25 23:47 231 1 12.2
2014-Nov-25 23:42 230 1 12.2
2014-Nov-25 23:32 055 0 12.2
2014-Nov-25 23:27 055 0 12.2
2014-Nov-25 23:22 094 12.2
2014-Nov-25 23:12 094 12.2
2014-Nov-25 23:02 094 12.2
2014-Nov-25 22:57 092 12.2
2014-Nov-25 22:52 094 12.2
2014-Nov-25 22:47 093 12.2
2014-Nov-25 22:32 093 0 12.2
2014-Nov-25 22:17 241 12.2
2014-Nov-25 22:03 241 12.2
2014-Nov-25 21:47 251 0 12.8
2014-Nov-25 21:32 011 1 12.8
2014-Nov-25 21:12 005 1 12.2
2014-Nov-25 20:57 087 0 12.2
2014-Nov-25 20:52 152 1 12.8
2014-Nov-25 20:47 015 0 12.8
2014-Nov-25 20:32 015 1 12.8
2014-Nov-25 20:12 207 1 12.8
2014-Nov-25 20:03 050 12.8
2014-Nov-25 19:47 049 0 12.8
2014-Nov-25 19:37 050 1 12.8
2014-Nov-25 19:27 050 1 12.8
2014-Nov-25 19:22 051 0 12.8
2014-Nov-25 19:07 051 1 12.8
2014-Nov-25 18:52 051 1 13.3
2014-Nov-25 18:37 051 1 13.3
2014-Nov-25 18:32 051 1 13.3
2014-Nov-25 18:17 051 1 13.3
2014-Nov-25 18:03 051 0 13.3
2014-Nov-25 17:57 051 1 13.3
2014-Nov-25 17:42 157 13.3
2014-Nov-25 17:37 157 13.3
2014-Nov-25 17:27 157 13.3
2014-Nov-25 17:22 156 13.3
2014-Nov-25 17:17 157 13.3
2014-Nov-25 16:57 156 13.3
2014-Nov-25 16:52 157 13.3
2014-Nov-25 16:47 156 13.3
2014-Nov-25 16:37 157 13.3
2014-Nov-25 16:22 156 13.3
2014-Nov-25 16:12 157 0 13.3
2014-Nov-25 16:07 157 0 13.3
2014-Nov-25 16:02 157 0 13.3
2014-Nov-25 15:57 156 13.3
2014-Nov-25 15:52 157 13.3
2014-Nov-25 15:42 157 0 13.3
2014-Nov-25 15:37 156 0 13.3
2014-Nov-25 15:32 157 0 13.3
2014-Nov-25 15:22 157 13.3
2014-Nov-25 15:17 157 0 13.3
2014-Nov-25 15:12 157 0 13.3
2014-Nov-25 15:02 157 0 13.3
2014-Nov-25 14:57 156 0 13.3
2014-Nov-25 14:52 156 13.3
2014-Nov-25 14:47 156 13.3
2014-Nov-25 14:32 156 13.3
2014-Nov-25 14:17 156 0 13.3
2014-Nov-25 13:57 156 0 13.9
2014-Nov-25 13:52 156 0 13.9
2014-Nov-25 13:42 156 0 13.9
2014-Nov-25 13:32 156 13.9
2014-Nov-25 13:17 156 0 13.9
2014-Nov-25 13:02 156 0 13.9
2014-Nov-25 12:57 156 0 13.9
2014-Nov-25 12:47 155 13.9
2014-Nov-25 12:32 155 0 13.9
2014-Nov-25 12:17 155 0 13.9
2014-Nov-25 11:52 155 0 13.9
2014-Nov-25 11:37 155 0 13.3
2014-Nov-25 11:27 155 0 13.9
2014-Nov-25 11:17 157 0 13.9
2014-Nov-25 11:02 157 13.9
2014-Nov-25 10:57 157 0 13.9
2014-Nov-25 10:52 158 0 13.9
2014-Nov-25 10:47 157 0 13.9
2014-Nov-25 10:27 075 0 13.9
2014-Nov-25 10:12 075 0 13.9
2014-Nov-25 10:03 075 0 13.9
2014-Nov-25 09:47 075 0 13.3
2014-Nov-25 09:32 076 13.3
2014-Nov-25 09:12 075 12.8
2014-Nov-25 09:03 075 12.8
2014-Nov-25 08:57 076 0 12.8
2014-Nov-25 08:52 076 12.8
2014-Nov-25 08:47 075 12.8
2014-Nov-25 08:32 076 0 13.3
2014-Nov-25 08:12 075 13.3
2014-Nov-25 08:03 075 0 12.8
2014-Nov-25 07:42 048 2 12.8
2014-Nov-25 07:22 040 1 12.8
2014-Nov-25 07:12 031 2 12.2
2014-Nov-25 06:52 349 1 12.2
2014-Nov-25 05:47 348 12.2
2014-Nov-25 05:32 348 12.2
2014-Nov-25 05:17 348 0 12.2
2014-Nov-25 04:57 348 1 12.2
2014-Nov-25 04:52 344 1 12.2
2014-Nov-25 04:37 344 1 12.2
2014-Nov-25 04:22 345 1 12.2
2014-Nov-25 04:07 350 2 12.2
2014-Nov-25 04:02 348 3 12.2
2014-Nov-25 03:57 360 3 12.2
2014-Nov-25 03:47 010 3 12.8
2014-Nov-25 03:27 024 3 12.8
2014-Nov-25 03:17 005 3 12.8
2014-Nov-25 03:02 013 3 12.2
2014-Nov-25 02:57 355 3 12.2
2014-Nov-25 02:47 344 2 12.2
2014-Nov-25 02:17 028 2 12.2
2014-Nov-25 02:02 346 0 12.2
2014-Nov-25 01:57 306 0 12.2
2014-Nov-25 01:36 015 1 12.8
2014-Nov-25 01:32 023 2 12.8
2014-Nov-25 01:16 005 3 12.8
2014-Nov-25 00:56 360 3 12.8
2014-Nov-25 00:41 047 2 12.8
2014-Nov-25 00:21 360 2 12.2
2014-Nov-25 00:16 040 1 12.2
2014-Nov-24 23:56 298 0 12.2
2014-Nov-24 23:51 298 0 12.2
2014-Nov-24 23:46 298 0 12.2
2014-Nov-24 23:31 298 0 12.2
2014-Nov-24 23:11 298 0 12.2
2014-Nov-24 22:51 298 12.2
2014-Nov-24 22:46 298 12.2
2014-Nov-24 22:26 298 12.2
2014-Nov-24 22:16 298 0 12.8
2014-Nov-24 21:56 298 0 12.8
2014-Nov-24 21:46 298 1 12.8
2014-Nov-24 21:31 315 3 12.8
2014-Nov-24 21:16 355 3 12.8